Meteo Giornale » Osservazioni meteo Indonesia » Sepinggan
ore: 03:00 - Osservazioni Meteo Sepinggan
Lat. 1° 16' S Lon. 116° 54' E Alt. 3 metri s.l.m.
28 °C
Molto Nuvoloso
Temp. 24 Ore
26 °C
31 °C
Nord
11.1 Km/h
Dew point 25 °C
Umidità 83 %
Visibilità 9 Km
Il sole sorge alle ore 06:09
Il sole tramonta alle ore 18:15
| Data e Ora | Cielo e Fenomeni | T °C | DP °C | Um. % | Pres. hPa | Vis. km | Vento km/h | |
|---|---|---|---|---|---|---|---|---|
| Oggi h: 03:00 | Molto Nuvoloso | 28 | 25 | 83 | 1012 | 9 | N 11.1 | |
| Oggi h: 02:30 | Molto Nuvoloso | 28 | 25 | 83 | 1012 | 9 | N 11.1 | |
| Oggi h: 02:00 | Molto Nuvoloso | 28 | 25 | 83 | 1012 | 9 | S/SO 11.1 | |
| Oggi h: 01:30 | Nuvoloso | 28 | 25 | 83 | 1012 | 9 | S/SO 13 | |
| Oggi h: 01:00 | Nuvoloso | 28 | 25 | 83 | 1012 | 9 | S 11.1 | |
| Oggi h: 00:30 | Nuvoloso | 28 | 25 | 83 | 1012 | 9 | S 9.3 | |
| Oggi h: 00:00 | Nuvoloso | 28 | 24 | 78 | 1013 | 9 | S 11.1 | |
| Ieri h: 23:30 | Nuvoloso | 28 | 25 | 83 | 1013 | 9 | S/SO 11.1 | |
| Ieri h: 23:00 | Nuvoloso | 28 | 25 | 83 | 1013 | 9 | S/SO 14.8 | |
| Ieri h: 22:30 | Nuvoloso | 28 | 24 | 78 | 1013 | 9 | S 9.3 | |
| Ieri h: 22:00 | Nuvoloso | 28 | 25 | 83 | 1013 | 9 | S/SO 11.1 | |
| Ieri h: 21:30 | Molto Nuvoloso | 28 | 25 | 83 | 1013 | 9 | S/SE 7.4 | |
| Ieri h: 21:00 | Molto Nuvoloso | 28 | 25 | 83 | 1012 | 9 | S 7.4 | |
| Ieri h: 20:30 | Poco Nuvoloso | 28 | 25 | 83 | 1012 | 9 | O/SO 14.8 | |
| Ieri h: 20:00 | Poco Nuvoloso | 28 | 25 | 83 | 1012 | 9 | E/SE 7.4 | |
| Ieri h: 19:30 | Poco Nuvoloso | 28 | 25 | 83 | 1011 | 9 | O/SO 7.4 | |
| Ieri h: 19:00 | Poco Nuvoloso | 28 | 25 | 83 | 1011 | 10 | N 5.5 | |
| Ieri h: 18:30 | Poco Nuvoloso | 28 | 25 | 83 | 1011 | 9 | E/NE 7.4 | |
| Ieri h: 18:00 | Poco Nuvoloso | 28 | 25 | 83 | 1010 | 10 | E 14.8 | |
| Ieri h: 17:30 | Poco Nuvoloso | 29 | 24 | 74 | 1010 | 10 | S/SE 9.3 | |
| Ieri h: 17:00 | Poco Nuvoloso | 29 | 25 | 79 | 1010 | 10 | E 11.1 | |
| Ieri h: 16:30 | Poco Nuvoloso | 30 | 24 | 70 | 1010 | 10 | N/NO 16.7 | |
| Ieri h: 16:00 | Poco Nuvoloso | 30 | 25 | 74 | 1010 | 10 | S/SO 14.8 | |
| Ieri h: 15:30 | Nuvoloso | 31 | 24 | 66 | 1010 | 10 | S/SO 13 | |
| Ieri h: 15:00 | Nuvoloso | 31 | 25 | 70 | 1010 | 10 | SO 9.3 | |
| Ieri h: 14:30 | Poco Nuvoloso | 31 | 24 | 66 | 1011 | 10 | S/SO 7.4 | |
| Ieri h: 14:00 | Nuvoloso | 31 | 25 | 70 | 1011 | 8 | N 11.1 | |
| Ieri h: 13:30 | Nuvoloso | 31 | 24 | 66 | 1011 | 8 | S/SO 11.1 | |
| Ieri h: 13:00 | Nuvoloso | 30 | 24 | 70 | 1012 | 8 | S/SO 11.1 | |
| Ieri h: 12:30 | Nuvoloso | 30 | 25 | 74 | 1012 | 9 | S/SO 11.1 | |
| Ieri h: 12:00 | Nuvoloso | 30 | 25 | 74 | 1012 | 8 | N 11.1 | |
| Ieri h: 11:30 | Nuvoloso | 31 | 25 | 70 | 1013 | 7 | N 11.1 | |
| Ieri h: 11:00 | Poco Nuvoloso | 31 | 25 | 70 | 1013 | 7 | N 9.3 | |
| Ieri h: 10:30 | Poco Nuvoloso | 30 | 25 | 74 | 1013 | 7 | S 11.1 | |
| Ieri h: 10:00 | Nuvoloso | 29 | 25 | 79 | 1014 | 7 | N 9.3 | |
| Ieri h: 09:30 | Nuvoloso | 29 | 24 | 74 | 1014 | 9 | S 9.3 | |
| Ieri h: 09:00 | Nuvoloso | 29 | 24 | 74 | 1014 | 9 | S 7.4 | |
| Ieri h: 08:30 | Poco Nuvoloso | 29 | 24 | 74 | 1014 | 10 | N 5.5 | |
| Ieri h: 08:00 | Poco Nuvoloso | 29 | 24 | 74 | 1013 | 10 | N 5.5 | |
| Ieri h: 07:30 | Foschia | 28 | 24 | 78 | 1013 | 5 | S/SE 7.4 | |
| Ieri h: 07:00 | Poco Nuvoloso | 28 | 24 | 78 | 1013 | 9 | S 7.4 | |
| Ieri h: 06:30 | Foschia | 27 | 24 | 83 | 1013 | 5 | O/NO 7.4 | |
| Ieri h: 06:00 | Nuvoloso | 26 | 25 | 94 | 1012 | 5 | NO 7.4 | |
| Ieri h: 05:30 | Foschia | 26 | 25 | 94 | 1012 | 4 | O/NO 9.3 | |
| Ieri h: 05:00 | Foschia | 26 | 25 | 94 | 1012 | 4 | O/NO 9.3 | |
| Ieri h: 04:30 | Poco Nuvoloso | 26 | 25 | 94 | 1012 | 6 | NO 7.4 | |
| Ieri h: 04:00 | Poco Nuvoloso | 27 | 25 | 88 | 1011 | 7 | O/NO 9.3 | |



